| time (UTC) | temp C | wind direction | speed KPH | gust KPH | rain 1hr cm | rain 24hr cm | rain mn cm | humidity % | barometer mb |
| 20260504214417 | 2 | 12 | 11.3 | 25.7 | 0.00 | 0.00 | 0.00 | 83 | 916.5 |
| 20260504213424 | 3 | 310 | 19.3 | 32.2 | 0.00 | 0.00 | 0.00 | 75 | 915.9 |
| 20260504212922 | 5 | 303 | 9.7 | 14.5 | 0.00 | 0.00 | 0.00 | 71 | 915.7 |
| 20260504211921 | 6 | 345 | 4.8 | 8.0 | 0.00 | 0.00 | 0.00 | 62 | 915.2 |
| 20260504210925 | 8 | 17 | 8.0 | 14.5 | 0.00 | 0.00 | 0.00 | 52 | 915.0 |
| 20260504205928 | 11 | 285 | 1.6 | 16.1 | 0.00 | 0.00 | 0.00 | 43 | 914.9 |
| 20260504204929 | 11 | 249 | 4.8 | 16.1 | 0.00 | 0.00 | 0.00 | 43 | 914.5 |
| 20260504203934 | 12 | 227 | 4.8 | 16.1 | 0.00 | 0.00 | 0.00 | 42 | 915.2 |
| 20260504202934 | 11 | 303 | 4.8 | 9.7 | 0.00 | 0.00 | 0.00 | 40 | 915.3 |
| 20260504202414 | 11 | 229 | 4.8 | 14.5 | 0.00 | 0.00 | 0.00 | 41 | 915.5 |
| 20260504201417 | 10 | 291 | 4.8 | 14.5 | 0.00 | 0.00 | 0.00 | 46 | 915.4 |
| 20260504200420 | 10 | 278 | 6.4 | 22.5 | 0.00 | 0.00 | 0.00 | 48 | 915.4 |
| 20260504195424 | 9 | 291 | 12.9 | 22.5 | 0.00 | 0.00 | 0.00 | 51 | 915.4 |
| 20260504194424 | 9 | 296 | 6.4 | 24.1 | 0.00 | 0.00 | 0.00 | 53 | 915.5 |
| 20260504193433 | 9 | 288 | 6.4 | 12.9 | 0.00 | 0.00 | 0.00 | 50 | 915.5 |
| 20260504192434 | 9 | 277 | 6.4 | 19.3 | 0.00 | 0.00 | 0.00 | 52 | 915.4 |
| 20260504191919 | 9 | 252 | 6.4 | 19.3 | 0.00 | 0.00 | 0.00 | 54 | 915.6 |
| 20260504191415 | 9 | 251 | 3.2 | 12.9 | 0.00 | 0.00 | 0.00 | 54 | 915.7 |
| 20260504190418 | 9 | 264 | 3.2 | 14.5 | 0.00 | 0.00 | 0.00 | 53 | 915.9 |
| 20260504185421 | 9 | 248 | 6.4 | 14.5 | 0.00 | 0.00 | 0.00 | 54 | 916.3 |
| 20260504184422 | 7 | 222 | 8.0 | 24.1 | 0.00 | 0.00 | 0.00 | 56 | 916.3 |
| 20260504182933 | 9 | 273 | 8.0 | 17.7 | 0.00 | 0.00 | 0.00 | 51 | 916.7 |
| 20260504182413 | 9 | 271 | 6.4 | 17.7 | 0.00 | 0.00 | 0.00 | 54 | 916.9 |
| 20260504181417 | 8 | 261 | 4.8 | 14.5 | 0.00 | 0.00 | 0.00 | 54 | 916.6 |
| 20260504180421 | 8 | 293 | 8.0 | 19.3 | 0.00 | 0.00 | 0.00 | 39 | 916.6 |
| 20260504175425 | 8 | 315 | 16.1 | 29.0 | 0.00 | 0.00 | 0.00 | 39 | 916.6 |
| 20260504174426 | 9 | 308 | 9.7 | 16.1 | 0.00 | 0.00 | 0.00 | 38 | 916.6 |
| 20260504173433 | 8 | 297 | 6.4 | 25.7 | 0.00 | 0.00 | 0.00 | 39 | 916.8 |
| 20260504172417 | 8 | 306 | 12.9 | 27.4 | 0.00 | 0.00 | 0.00 | 36 | 916.7 |
| 20260504171424 | 9 | 296 | 14.5 | 24.1 | 0.00 | 0.00 | 0.00 | 37 | 916.5 |
| 20260504170426 | 8 | 296 | 14.5 | 19.3 | 0.00 | 0.00 | 0.00 | 40 | 916.7 |
| 20260504150914 | 8 | 280 | 4.8 | 11.3 | 0.00 | 0.00 | 0.00 | 44 | 917.8 |
| 20260504140933 | 5 | 231 | 4.8 | 9.7 | 0.00 | 0.00 | 0.00 | 50 | 918.0 |
| 20260504130432 | 1 | 220 | 0.0 | 3.2 | 0.00 | 0.00 | 0.00 | 62 | 918.5 |
| 20260504100426 | 0 | 355 | 0.0 | 1.6 | 0.00 | 0.00 | 0.00 | 58 | 918.3 |
| 20260504081920 | 0 | 359 | 0.0 | 4.8 | 0.00 | 0.00 | 0.00 | 57 | 918.7 |
| 20260504081210 | 0 | 108 | 0.0 | 0.0 | 0.00 | 0.00 | 0.00 | 56 | 918.7 |
| 20260504045919 | 2 | 285 | 0.0 | 1.6 | 0.00 | 0.00 | 0.00 | 48 | 919.7 |
| 20260504044922 | 2 | 285 | 0.0 | 0.0 | 0.00 | 0.00 | 0.00 | 46 | 920.0 |
| 20260504044416 | 3 | 285 | 0.0 | 1.6 | 0.00 | 0.00 | 0.00 | 45 | 920.1 |
| 20260504043425 | 3 | 285 | 0.0 | 1.6 | 0.00 | 0.00 | 0.00 | 46 | 920.3 |
| 20260504042426 | 3 | 285 | 0.0 | 1.6 | 0.00 | 0.00 | 0.00 | 45 | 920.2 |
| 20260504041924 | 4 | 285 | 0.0 | 0.0 | 0.00 | 0.00 | 0.00 | 41 | 920.1 |
| 20260504040929 | 5 | 285 | 0.0 | 3.2 | 0.00 | 0.00 | 0.00 | 40 | 920.2 |
| 20260504035918 | 4 | 303 | 0.0 | 3.2 | 0.00 | 0.00 | 0.00 | 41 | 920.3 |
| 20260504034924 | 4 | 294 | 0.0 | 0.0 | 0.00 | 0.00 | 0.00 | 41 | 920.2 |
| 20260504033925 | 5 | 294 | 0.0 | 0.0 | 0.00 | 0.00 | 0.00 | 40 | 920.3 |
| 20260504032938 | 5 | 294 | 0.0 | 0.0 | 0.00 | 0.00 | 0.00 | 39 | 920.4 |
| 20260504032433 | 5 | 294 | 0.0 | 0.0 | 0.00 | 0.00 | 0.00 | 39 | 920.3 |
| 20260504031414 | 6 | 294 | 0.0 | 0.0 | 0.00 | 0.00 | 0.00 | 38 | 920.3 |
| 20260504030425 | 6 | 294 | 0.0 | 3.2 | 0.00 | 0.00 | 0.00 | 38 | 920.1 |
| 20260504024933 | 6 | 290 | 0.0 | 1.6 | 0.00 | 0.00 | 0.00 | 37 | 919.9 |
| 20260504024412 | 6 | 290 | 0.0 | 1.6 | 0.00 | 0.00 | 0.00 | 36 | 919.9 |
| 20260504023415 | 6 | 81 | 0.0 | 0.0 | 0.00 | 0.00 | 0.00 | 46 | 919.7 |
| 20260504022913 | 6 | 81 | 0.0 | 0.0 | 0.00 | 0.00 | 0.00 | 46 | 919.8 |
| 20260504021918 | 7 | 70 | 0.0 | 0.0 | 0.00 | 0.00 | 0.00 | 38 | 919.7 |
| 20260504020919 | 8 | 280 | 0.0 | 0.0 | 0.00 | 0.00 | 0.00 | 36 | 919.5 |
| 20260504015921 | 10 | 280 | 0.0 | 9.7 | 0.00 | 0.00 | 0.00 | 29 | 919.6 |
| 20260504014927 | 10 | 283 | 1.6 | 14.5 | 0.00 | 0.00 | 0.00 | 29 | 919.6 |
| 20260504013926 | 11 | 307 | 4.8 | 14.5 | 0.00 | 0.00 | 0.00 | 28 | 919.7 |
| 20260504012933 | 11 | 271 | 6.4 | 20.9 | 0.00 | 0.00 | 0.00 | 27 | 919.7 |
| 20260504012435 | 11 | 240 | 6.4 | 20.9 | 0.00 | 0.00 | 0.00 | 26 | 919.7 |
| 20260504011415 | 11 | 307 | 4.8 | 16.1 | 0.00 | 0.00 | 0.00 | 27 | 919.8 |
| 20260504010422 | 11 | 297 | 9.7 | 20.9 | 0.00 | 0.00 | 0.00 | 26 | 919.7 |
| 20260504005426 | 11 | 304 | 6.4 | 14.5 | 0.00 | 0.00 | 0.00 | 27 | 919.8 |
| 20260504004431 | 12 | 308 | 6.4 | 20.9 | 0.00 | 0.00 | 0.00 | 25 | 919.8 |
| 20260504003916 | 12 | 297 | 8.0 | 20.9 | 0.00 | 0.00 | 0.00 | 24 | 919.8 |
| 20260504002919 | 12 | 245 | 9.7 | 20.9 | 0.00 | 0.00 | 0.00 | 23 | 919.9 |
| 20260504002417 | 12 | 273 | 8.0 | 17.7 | 0.00 | 0.00 | 0.00 | 23 | 919.9 |
| 20260504001421 | 12 | 269 | 8.0 | 25.7 | 0.00 | 0.00 | 0.00 | 23 | 919.8 |
| 20260504000420 | 12 | 295 | 12.9 | 32.2 | 0.00 | 0.00 | 0.00 | 22 | 919.8 |
| 20260503235424 | 12 | 242 | 11.3 | 33.8 | 0.00 | 0.00 | 0.00 | 24 | 919.8 |
| 20260503234426 | 12 | 256 | 12.9 | 37.0 | 0.00 | 0.00 | 0.00 | 22 | 919.9 |
| 20260503232922 | 12 | 271 | 12.9 | 30.6 | 0.00 | 0.00 | 0.00 | 22 | 920.1 |
| 20260503231918 | 12 | 257 | 12.9 | 22.5 | 0.00 | 0.00 | 0.00 | 24 | 920.1 |
| 20260503230919 | 12 | 231 | 11.3 | 25.7 | 0.00 | 0.00 | 0.00 | 24 | 920.0 |
| 20260503225922 | 12 | 311 | 17.7 | 38.6 | 0.00 | 0.00 | 0.00 | 23 | 920.2 |
| 20260503224926 | 12 | 278 | 9.7 | 29.0 | 0.00 | 0.00 | 0.00 | 25 | 920.4 |
| 20260503223929 | 12 | 304 | 12.9 | 32.2 | 0.00 | 0.00 | 0.00 | 23 | 920.0 |
| 20260503223109 | 12 | 239 | 12.9 | 27.4 | 0.00 | 0.00 | 0.00 | 24 | 920.4 |
| 20260503221913 | 12 | 257 | 11.3 | 32.2 | 0.00 | 0.00 | 0.00 | 24 | 920.3 |
| 20260503220921 | 12 | 310 | 17.7 | 32.2 | 0.00 | 0.00 | 0.00 | 23 | 920.5 |
| 20260503220420 | 12 | 317 | 17.7 | 32.2 | 0.00 | 0.00 | 0.00 | 23 | 920.5 |
| 20260503215419 | 12 | 293 | 11.3 | 24.1 | 0.00 | 0.00 | 0.00 | 27 | 920.6 |